sat.trackr.live / text

‹ back to catalog

MANDRAKE 2 BAKER

NORAD 48908 · 2021-059AF

PAYLOAD ACTIVE UNKNOWN

§ Identity

Operator
Country
US
Launch date
2021-06-30
Launch site
AFETR
Launch vehicle
Mass (kg)
RCS (m²)

External: N2YO · Heavens-Above · Gunter

§ Orbital elements

Epoch: 2026-05-25T01:29:17.549952Z

Period
92.41 min
Inclination
97.7021°
Eccentricity
0.0004704
Mean motion
15.58250609 rev/d
Perigee alt
389.5 km
Apogee alt
395.9 km
Semi-major
6,770.9 km
B*
3.3385e-4
RAAN
335.8156°
Arg perigee
83.0261°
Mean anomaly
277.1529°
Rev number
27,369

§ Raw data

MANDRAKE 2 BAKER1 48908U 21059AF  26145.06200868  .00025181  00000+0  33385-3 0  99952 48908  97.7021 335.8156 0004704  83.0261 277.1529 15.58250609273694

JSON: /api/v1/satellites/48908 · /tle

For live sub-satellite position, see the globe view (requires WebGL).

§ Visibility from observer

Set your observer location to see the next 7 days of passes ≥ 10°. The values pass through the URL so the page stays shareable.

No JS? Fill the form by hand. The geolocation button needs JavaScript.

§ Radio — SatNOGS DB

ModeDescriptionDownlinkUplink
FSK Mode U - Downlink 400.498 MHz

1 transmitter · refreshed weekly from db.satnogs.org